Weather History for KIBM - June, 2014

Change the Weather History Date:

Thursday, June 5, 2014

  Actual Average (KSNY) Record (KSNY)
Temperature  
Mean Temperature 60 °F 64 °F  
Max Temperature 75 °F 78 °F 95 °F (1977)
Min Temperature 46 °F 50 °F 34 °F (1998)
Degree Days  
Heating Degree Days 4 4  
Month to date heating degree days 20  
Since 1 June heating degree days 20  
Since 1 July heating degree days 6182  
Cooling Degree Days 0 2  
Month to date cooling degree days 10  
Year to date cooling degree days 32  
Since 1 June cooling degree days 10  
Growing Degree Days 10 (Base 50)    
Moisture  
Dew Point 43 °F    
Average Humidity 55    
Maximum Humidity 91    
Minimum Humidity 20    
Precipitation  
Precipitation 0.00 in 0.10 in 1.71 in (1953)
Month to date precipitation 0.54  
Year to date precipitation 7.30  
Sea Level Pressure  
Sea Level Pressure 30.02 in    
Wind  
Wind Speed 7 mph (North)    
Max Wind Speed 14 mph    
Max Gust Speed 17 mph    
Visibility 10 miles    
Events      
T = Trace of Precipitation, MM = Missing Value Source: NWS Daily Summary

Daily Weather History Graph

Daily Weather History Graph

Search for Another Location

Airport or City:

Trip Planner

Search our weather history database for the weather conditions in past years. The results will help you decide how hot, cold, wet, or windy it might be!

Date:

Astronomy

Jun. 05, 2014 Rise Set
Actual Time 6:22 AM CDT 9:24 PM CDT
Civil Twilight 5:49 AM CDT 9:57 PM CDT
Nautical Twilight 5:07 AM CDT 10:39 PM CDT
Astronomical Twilight 4:17 AM CDT 11:29 PM CDT
Moon 1:44 PM CDT (6/5) 1:50 AM CDT (6/5)
Length of Visible Light 16h 07m
Length of Day
15h 01m
Waxing Crescent, 49% of the Moon is Illuminated
Jun 5
Waxing Crescent
Jun 5
First Quarter
Jun 12
Full
Jun 19
Last Quarter
Jun 27
New

Hourly Weather History & Observations

Time (CDT) Temp. Dew Point Humidity Pressure Visibility Wind Dir Wind Speed Gust Speed Precip Events Conditions
12:15 AM 60.1 °F 47.5 °F 63% 30.01 in 10.0 mi North 11.5 mph - N/A   Mostly Cloudy
12:35 AM 59.9 °F 48.7 °F 67% 30.01 in 10.0 mi North 13.8 mph - N/A   Overcast
12:55 AM 59.0 °F 49.5 °F 71% 30.02 in 10.0 mi NNE 11.5 mph 17.3 mph N/A   Overcast
1:15 AM 57.4 °F 49.6 °F 75% 30.01 in 10.0 mi NE 12.7 mph - N/A   Mostly Cloudy
1:35 AM 55.8 °F 49.3 °F 79% 30.01 in 10.0 mi NNE 8.1 mph - N/A   Scattered Clouds
1:55 AM 55.4 °F 49.8 °F 81% 30.02 in 10.0 mi East 3.5 mph - N/A   Mostly Cloudy
2:15 AM 54.1 °F 50.0 °F 86% 30.02 in 10.0 mi NE 3.5 mph - N/A   Mostly Cloudy
2:35 AM 53.6 °F 50.4 °F 89% 30.04 in 10.0 mi NW 5.8 mph - N/A   Overcast
2:55 AM 54.7 °F 50.9 °F 87% 30.04 in 10.0 mi North 9.2 mph - N/A   Overcast
3:15 AM 54.3 °F 51.1 °F 89% 30.02 in 10.0 mi NNW 8.1 mph - N/A   Mostly Cloudy
3:35 AM 53.2 °F 50.2 °F 89% 30.01 in 10.0 mi Calm Calm - N/A   Scattered Clouds
3:55 AM 52.0 °F 49.5 °F 91% 30.01 in 10.0 mi Calm Calm - N/A   Scattered Clouds
4:15 AM 51.1 °F 48.6 °F 91% 30.01 in 10.0 mi NNW 8.1 mph - N/A   Clear
4:35 AM 52.2 °F 49.3 °F 90% 30.01 in 10.0 mi NW 9.2 mph - N/A   Clear
4:55 AM 50.9 °F 48.2 °F 90% 30.01 in 10.0 mi WNW 4.6 mph - N/A   Clear
5:15 AM 50.7 °F 47.7 °F 89% 30.02 in 10.0 mi WNW 6.9 mph - N/A   Clear
5:35 AM 50.0 °F 46.8 °F 89% 30.03 in 10.0 mi West 5.8 mph - N/A   Clear
5:55 AM 49.1 °F 45.9 °F 89% 30.03 in 10.0 mi West 5.8 mph - N/A   Clear
6:15 AM 48.2 °F 45.3 °F 90% 30.04 in 10.0 mi West 6.9 mph - N/A   Clear
6:35 AM 47.3 °F 44.6 °F 90% 30.04 in 10.0 mi WNW 4.6 mph - N/A   Clear
6:55 AM 46.6 °F 44.1 °F 91% 30.04 in 10.0 mi Calm Calm - N/A   Clear
7:15 AM 49.1 °F 45.9 °F 89% 30.04 in 10.0 mi West 4.6 mph - N/A   Clear
7:35 AM 50.5 °F 46.6 °F 86% 30.05 in 10.0 mi WSW 3.5 mph - N/A   Clear
7:55 AM 52.7 °F 46.8 °F 80% 30.05 in 10.0 mi West 6.9 mph - N/A   Clear
8:35 AM 56.1 °F 46.4 °F 70% 30.04 in 10.0 mi WNW 8.1 mph - N/A   Clear
8:55 AM 58.3 °F 46.6 °F 65% 30.04 in 10.0 mi WNW 9.2 mph - N/A   Clear
9:15 AM 60.3 °F 47.3 °F 62% 30.04 in 10.0 mi WNW 8.1 mph - N/A   Clear
9:35 AM 61.7 °F 48.4 °F 62% 30.04 in 10.0 mi WNW 6.9 mph - N/A   Clear
9:55 AM 63.0 °F 48.4 °F 59% 30.04 in 10.0 mi WNW 5.8 mph - N/A   Clear
10:10 AM 64.4 °F 48.4 °F 56% 30.04 in 10.0 mi NW 5.8 mph - N/A   Clear
10:35 AM 66.6 °F 45.7 °F 47% 30.04 in 10.0 mi WNW 5.8 mph - N/A   Clear
10:55 AM 67.8 °F 43.5 °F 41% 30.04 in 10.0 mi NNW 4.6 mph - N/A   Clear
11:15 AM 68.5 °F 42.1 °F 38% 30.04 in 10.0 mi Calm Calm - N/A   Clear
11:35 AM 69.3 °F 35.6 °F 29% 30.04 in 10.0 mi West 4.6 mph - N/A   Clear
11:55 AM 69.8 °F 38.3 °F 32% 30.04 in 10.0 mi WNW 6.9 mph - N/A   Clear
12:15 PM 70.5 °F 37.4 °F 30% 30.03 in 10.0 mi NNW 8.1 mph - N/A   Clear
12:35 PM 70.9 °F 35.1 °F 27% 30.03 in 10.0 mi NNE 4.6 mph - N/A   Clear
12:55 PM 71.8 °F 35.6 °F 27% 30.03 in 10.0 mi WNW 6.9 mph - N/A   Clear
1:15 PM 73.0 °F 37.4 °F 27% 30.03 in 10.0 mi NW 5.8 mph - N/A   Clear
1:35 PM 72.1 °F 33.1 °F 24% 30.03 in 10.0 mi Calm Calm - N/A   Clear
1:55 PM 72.7 °F 33.1 °F 23% 30.03 in 10.0 mi NW 4.6 mph - N/A   Clear
2:15 PM 73.6 °F 35.1 °F 25% 30.03 in 10.0 mi NNE 8.1 mph - N/A   Clear
2:35 PM 73.8 °F 34.0 °F 23% 30.03 in 10.0 mi NW 4.6 mph - N/A   Clear
2:55 PM 74.1 °F 34.2 °F 23% 30.03 in 10.0 mi North 3.5 mph - N/A   Clear
3:15 PM 73.8 °F 32.2 °F 22% 30.02 in 10.0 mi NE 3.5 mph - N/A   Clear
3:35 PM 75.2 °F 33.6 °F 22% 30.02 in 10.0 mi WNW 5.8 mph - N/A   Clear
3:55 PM 75.2 °F 32.9 °F 21% 30.01 in 10.0 mi Calm Calm - N/A   Clear
4:15 PM 75.0 °F 30.9 °F 20% 30.01 in 10.0 mi Calm Calm - N/A   Clear
4:35 PM 73.6 °F 35.8 °F 25% 30.00 in 10.0 mi Calm Calm - N/A   Clear
4:55 PM 72.5 °F 36.7 °F 27% 30.00 in 10.0 mi ENE 4.6 mph - N/A   Clear
5:15 PM 73.4 °F 36.3 °F 26% 29.99 in 10.0 mi East 4.6 mph - N/A   Clear
5:35 PM 73.6 °F 36.3 °F 26% 30.00 in 10.0 mi ESE 3.5 mph - N/A   Clear
5:55 PM 73.4 °F 32.7 °F 22% 30.00 in 10.0 mi Calm Calm - N/A   Clear
6:15 PM 74.5 °F 33.3 °F 22% 30.00 in 10.0 mi Calm Calm - N/A   Clear
6:35 PM 74.1 °F 36.9 °F 26% 29.99 in 10.0 mi East 3.5 mph - N/A   Clear
6:55 PM 73.6 °F 38.5 °F 28% 29.98 in 10.0 mi East 8.1 mph - N/A   Clear
7:15 PM 71.8 °F 38.1 °F 29% 29.99 in 10.0 mi East 6.9 mph - N/A   Clear
7:35 PM 70.0 °F 42.1 °F 36% 29.98 in 10.0 mi East 6.9 mph - N/A   Clear
7:55 PM 66.4 °F 44.6 °F 45% 29.99 in 10.0 mi East 8.1 mph - N/A   Clear
8:10 PM 65.3 °F 44.8 °F 47% 30.00 in 10.0 mi East 8.1 mph - N/A   Clear
8:35 PM 65.7 °F 43.0 °F 44% 30.00 in 10.0 mi East 8.1 mph - N/A   Clear
8:55 PM 65.3 °F 42.4 °F 43% 30.00 in 10.0 mi East 9.2 mph - N/A   Clear
9:15 PM 63.1 °F 43.3 °F 48% 30.00 in 10.0 mi East 8.1 mph - N/A   Clear
9:35 PM 61.7 °F 43.9 °F 52% 30.00 in 10.0 mi East 9.2 mph - N/A   Clear
9:55 PM 60.4 °F 43.5 °F 54% 30.01 in 10.0 mi ENE 8.1 mph - N/A   Clear
10:15 PM 58.1 °F 44.6 °F 61% 30.01 in 10.0 mi ESE 4.6 mph - N/A   Clear
10:35 PM 58.3 °F 44.2 °F 60% 30.02 in 10.0 mi ESE 8.1 mph - N/A   Clear
10:55 PM 56.5 °F 44.6 °F 64% 30.02 in 10.0 mi SE 5.8 mph - N/A   Clear
11:15 PM 58.5 °F 43.0 °F 56% 30.02 in 10.0 mi SSE 5.8 mph - N/A   Clear
11:35 PM 55.4 °F 43.0 °F 63% 30.02 in 10.0 mi SSE 6.9 mph - N/A   Clear
11:55 PM 54.3 °F 43.2 °F 66% 30.02 in 10.0 mi SSE 4.6 mph - N/A   Clear